Walla Walla, WA

4:01 PM PDT on April 26, 2017 (GMT -0700)
Walla Walla Regional

Weather History for KALW - June, 2013

Change the Weather History Date:

Wednesday, June 12, 2013

  Actual Average Record
Temperature  
Mean Temperature 61 °F 65 °F  
Max Temperature 73 °F 77 °F 95 °F (1974)
Min Temperature 51 °F 53 °F 42 °F (1968)
Degree Days  
Heating Degree Days 4 2  
Month to date heating degree days 36  
Since 1 June heating degree days 36  
Since 1 July heating degree days 4985  
Cooling Degree Days 0 3  
Month to date cooling degree days 27  
Year to date cooling degree days 62  
Since 1 June cooling degree days 27  
Growing Degree Days 11 (Base 50)    
Moisture  
Dew Point 37 °F    
Average Humidity 43    
Maximum Humidity 63    
Minimum Humidity 26    
Precipitation  
Precipitation 0.00 in 0.05 in 0.74 in (1953)
Month to date precipitation 0.69  
Year to date precipitation 11.33  
Snow  
Snow 0.00 in 0.00 in 0.00 in (2002)
Month to date snowfall 0.0  
Year to date snowfall 6.0  
Since 1 July snowfall 11.7  
Snow Depth -    
Sea Level Pressure  
Sea Level Pressure 30.06 in    
Wind  
Wind Speed 10 mph (SSW)    
Max Wind Speed 15 mph    
Max Gust Speed 24 mph    
Visibility 10 miles    
Events      
T = Trace of Precipitation, MM = Missing Value Source: NWS Daily Summary

Daily Weather History Graph

Daily Weather History Graph

Search for Another Location

Airport or City:

Trip Planner

Search our weather history database for the weather conditions in past years. The results will help you decide how hot, cold, wet, or windy it might be!

Date:

Astronomy

Jun. 12, 2013 Rise Set
Actual Time 5:01 AM PDT 8:44 PM PDT
Civil Twilight 4:23 AM PDT 9:23 PM PDT
Nautical Twilight 3:31 AM PDT 10:15 PM PDT
Astronomical Twilight 2:19 AM PDT 11:27 PM PDT
Moon 8:55 AM PDT (6/12) 11:11 PM PDT (6/12)
Length of Visible Light 17h 00m
Length of Day
15h 43m
Waxing Crescent, 15% of the Moon is Illuminated
Jun 12
Waxing Crescent
Jun 16
First Quarter
Jun 23
Full
Jun 29
Last Quarter
Jul 8
New

Hourly Weather History & Observations

Time (PDT) Temp. Dew Point Humidity Pressure Visibility Wind Dir Wind Speed Gust Speed Precip Events Conditions
12:53 AM 55.9 °F 39.0 °F 53% 30.09 in 10.0 mi South 11.5 mph - N/A   Clear
1:53 AM 55.9 °F 39.0 °F 53% 30.09 in 10.0 mi South 8.1 mph - N/A   Clear
2:53 AM 55.0 °F 39.9 °F 57% 30.07 in 10.0 mi SSW 6.9 mph - N/A   Clear
3:53 AM 54.0 °F 39.9 °F 59% 30.08 in 10.0 mi South 8.1 mph - N/A   Clear
4:53 AM 52.0 °F 39.9 °F 63% 30.09 in 10.0 mi South 5.8 mph - N/A   Clear
5:53 AM 51.1 °F 39.0 °F 63% 30.10 in 10.0 mi SSW 9.2 mph - N/A   Clear
6:53 AM 53.1 °F 39.0 °F 59% 30.10 in 10.0 mi SSW 13.8 mph - N/A   Clear
7:53 AM 57.0 °F 39.0 °F 51% 30.10 in 10.0 mi South 15.0 mph - N/A   Clear
8:53 AM 60.1 °F 37.9 °F 44% 30.10 in 10.0 mi SSW 15.0 mph 20.7 mph N/A   Clear
9:53 AM 62.1 °F 39.0 °F 43% 30.09 in 10.0 mi SSW 11.5 mph 19.6 mph N/A   Clear
10:53 AM 63.0 °F 37.9 °F 40% 30.10 in 10.0 mi WSW 13.8 mph 19.6 mph N/A   Partly Cloudy
11:53 AM 64.0 °F 36.0 °F 35% 30.09 in 10.0 mi SW 11.5 mph 18.4 mph N/A   Scattered Clouds
12:53 PM 66.9 °F 37.9 °F 34% 30.08 in 10.0 mi West 12.7 mph 24.2 mph N/A   Clear
1:53 PM 66.9 °F 37.0 °F 33% 30.07 in 10.0 mi WSW 10.4 mph 19.6 mph N/A   Partly Cloudy
2:53 PM 69.1 °F 36.0 °F 30% 30.05 in 10.0 mi WSW 10.4 mph 19.6 mph N/A   Clear
3:53 PM 71.1 °F 35.1 °F 27% 30.03 in 10.0 mi SW 9.2 mph 19.6 mph N/A   Clear
4:53 PM 70.0 °F 34.0 °F 27% 30.02 in 10.0 mi South 5.8 mph - N/A   Clear
5:53 PM 71.1 °F 34.0 °F 26% 30.01 in 10.0 mi WSW 8.1 mph 19.6 mph N/A   Clear
6:53 PM 70.0 °F 34.0 °F 27% 30.00 in 10.0 mi West 11.5 mph - N/A   Clear
7:53 PM 69.1 °F 34.0 °F 27% 30.00 in 10.0 mi West 5.8 mph - N/A   Clear
8:53 PM 64.0 °F 35.1 °F 34% 30.02 in 10.0 mi South 4.6 mph - N/A   Clear
9:53 PM 62.1 °F 37.9 °F 41% 30.03 in 10.0 mi SSE 6.9 mph - N/A   Clear
10:53 PM 59.0 °F 37.0 °F 44% 30.05 in 10.0 mi South 11.5 mph - N/A   Clear
11:53 PM 57.0 °F 39.0 °F 51% 30.06 in 10.0 mi South 13.8 mph - N/A   Clear